Flag for Isle of Man Weather past 2 weeks in Ramsey, Isle of Man

Now
57 °F

Passing clouds.


Feels Like: 53 °F
Forecast: 48 / 58 °F
Wind: 21 mph from Northeast

Location: Isle Of Man / Ronaldsway Airport


UV Index: 3 (Moderate)

Visibility: N/A


Pressure: 29.80 "Hg

Humidity: 63%

Dew point: 45 °F

Location of RamseyLocation

Historic Weather in Ramsey

°F

Ramsey temperature yesterday

Maximum temperature yesterday: 50 °F (at 12:20 PM)
Minimum temperature yesterday: 41 °F (at 12:50 AM)
Average temperature yesterday: 46 °F

Past Weeks' High & Low Weather Summary

 TemperatureHumidityPressure
High57 °F (Apr 20, 11:50 AM)100% (Apr 5, 5:20 PM)30.39 "Hg (Apr 5, 5:20 PM)
Low39 °F (Apr 11, 4:50 AM)47% (Apr 14, 3:20 PM)29.53 "Hg (Apr 6, 11:50 AM)
Average49 °F80%30.06 "Hg
* Reported Apr 5 5:20 PM — Apr 20 5:20 PM, Ramsey, Weather by CustomWeather, © 2014

Note: Actual official high and low records may vary slightly from our data, if they occured in-between our weather recording intervals... More about our weather records

Advertising

Historic Weather Conditions — Data for Previous 24 hours

 ConditionsComfort  
Time TempWeatherWind HumidityBarometerVisibility
5:20 PM
Apr 20
57 °FPassing clouds.16 mph63%29.80 "HgN/A
4:50 PM57 °FPassing clouds.17 mph67%29.83 "HgN/A
4:20 PM57 °FSunny.20 mph67%29.83 "Hg10 mi
3:50 PM55 °FPassing clouds.13 mph67%29.86 "HgN/A
3:20 PM55 °FSprinkles. Passing clouds.12 mph72%29.86 "HgN/A
2:50 PM57 °FSprinkles. Passing clouds.13 mph59%29.86 "HgN/A
2:20 PM55 °FSunny.13 mph59%29.89 "Hg10 mi
1:50 PM57 °FPassing clouds.13 mph55%29.89 "HgN/A
1:20 PM55 °FPassing clouds.13 mph59%29.92 "HgN/A
12:50 PM55 °FPassing clouds.17 mph67%29.92 "HgN/A
12:20 PM54 °FSunny.14 mph72%29.92 "Hg10 mi
11:50 AM57 °FSunny.13 mph51%29.92 "Hg10 mi
11:20 AM54 °FPassing clouds.12 mph58%29.92 "HgN/A
10:50 AM52 °FPassing clouds.13 mph58%29.95 "HgN/A
10:20 AM52 °FPassing clouds.15 mph58%29.95 "HgN/A
9:50 AM54 °FPassing clouds.13 mph51%29.95 "HgN/A
9:20 AM54 °FPassing clouds.10 mph51%29.95 "HgN/A
8:50 AM52 °FPassing clouds.9 mph54%29.98 "HgN/A
8:20 AM50 °FPassing clouds.13 mph58%29.98 "HgN/A
7:50 AM46 °FPassing clouds.9 mph71%29.98 "HgN/A
7:20 AM45 °FSunny.9 mph76%29.98 "Hg10 mi
6:50 AM43 °FPassing clouds.6 mph81%30.01 "HgN/A
6:20 AM41 °FClear.7 mph87%30.01 "Hg10 mi
5:50 AM41 °FPassing clouds.6 mph81%30.01 "HgN/A
4:50 AM41 °FPassing clouds.8 mph87%30.01 "HgN/A
1:50 AM45 °FPassing clouds.7 mph87%30.07 "HgN/A
12:50 AM45 °FClear.8 mph81%30.07 "Hg10 mi
11:50 PM
Apr 19
41 °FPassing clouds.7 mph81%30.07 "HgN/A
10:50 PM43 °FClear.6 mph76%30.07 "Hg10 mi
9:50 PM43 °FClear.6 mph76%30.07 "Hg10 mi
8:50 PM45 °FPassing clouds.7 mph71%30.07 "HgN/A
8:20 PM45 °FPassing clouds.6 mph71%30.07 "HgN/A
7:50 PM46 °FSunny.8 mph71%30.07 "Hg10 mi
7:20 PM48 °FSunny.10 mph62%30.07 "Hg10 mi
6:50 PM48 °FSunny.13 mph66%30.07 "Hg10 mi
6:20 PM50 °FPassing clouds.13 mph62%30.07 "HgN/A
Weather by CustomWeather, © 2014

See weather overview